Peotone Weather
Station Historical Data
 
Daily Summary for October 20, 2018 Units:  English    Metric   Both
« Previous Day
Next Day »
Daily Weekly Monthly Yearly Custom
  Current: High: Low: Average:
Temperature: 30.9 °F 53.2 °F 30.9 °F 42.7 °F
Dew Point: 20.89 °F 46.19 °F 20.82 °F 32.9 °F
Humidity: 66% 88% 32% 69%
Wind Speed: 3.4mph 36.8mph 1.1mph 10.1mph
Wind Gust: 6.9mph 40.2mph - -
WindNW - - WNW
Pressure: 30.35 in 30.35 in 29.87 in -
Precipitation: 0.02 in      
Historical Graphs
 
 
Tabular Data for October 20, 2018
Time Temperature Dew Point Pressure Wind Wind Speed Wind Gust Humidity Rainfall Rate (Hourly) solar Conditions
00:00 49.9 °F 46.19 °F 29.90 in WSW 6.9 mph 10.4 mph 87% 0 in 0.00 W/m2
00:04 49.8 °F 46.09 °F 29.89 in West 9.2 mph 9.2 mph 87% 0 in 0.00 W/m2
00:05 49.8 °F 46.09 °F 29.90 in WSW 5.8 mph 9.2 mph 87% 0 in 0.00 W/m2
00:09 49.8 °F 46.09 °F 29.89 in SW 5.8 mph 9.2 mph 87% 0 in 0.00 W/m2
00:14 49.7 °F 45.99 °F 29.89 in WSW 8.1 mph 8.1 mph 87% 0 in 0.00 W/m2
00:19 49.5 °F 45.8 °F 29.90 in WSW 5.8 mph 8.1 mph 87% 0 in 0.00 W/m2
00:24 49.4 °F 45.7 °F 29.90 in West 5.8 mph 8.1 mph 87% 0 in 0.00 W/m2
00:29 49.3 °F 45.6 °F 29.90 in WSW 4.6 mph 6.9 mph 87% 0 in 0.00 W/m2
00:34 49 °F 45.61 °F 29.90 in WSW 3.4 mph 5.8 mph 88% 0 in 0.00 W/m2
00:39 48.9 °F 45.51 °F 29.90 in West 2.3 mph 5.8 mph 88% 0 in 0.00 W/m2
00:44 48.7 °F 45.31 °F 29.90 in West 4.6 mph 6.9 mph 88% 0 in 0.00 W/m2
00:49 48.8 °F 45.41 °F 29.90 in SW 8.1 mph 10.3 mph 88% 0 in 0.00 W/m2
00:54 48.7 °F 45.31 °F 29.90 in West 2.3 mph 6.9 mph 88% 0 in 0.00 W/m2
00:59 48.6 °F 45.21 °F 29.90 in WSW 5.8 mph 8.1 mph 88% 0 in 0.00 W/m2
01:04 48.4 °F 45.02 °F 29.90 in WSW 4.6 mph 8.1 mph 88% 0 in 0.00 W/m2
01:09 48.4 °F 45.02 °F 29.90 in West 5.8 mph 10.3 mph 88% 0 in 0.00 W/m2
01:14 48.4 °F 44.72 °F 29.90 in West 8.1 mph 10.3 mph 87% 0 in 0.00 W/m2
01:19 48.4 °F 44.72 °F 29.90 in WSW 5.8 mph 9.2 mph 87% 0 in 0.00 W/m2
01:24 48.3 °F 44.31 °F 29.91 in West 4.6 mph 6.9 mph 86% 0 in 0.00 W/m2
01:29 48.1 °F 44.12 °F 29.91 in West 3.4 mph 8.1 mph 86% 0 in 0.00 W/m2
01:34 47.9 °F 43.92 °F 29.90 in West 4.6 mph 6.9 mph 86% 0 in 0.00 W/m2
01:39 47.7 °F 43.72 °F 29.91 in West 2.3 mph 6.9 mph 86% 0 in 0.00 W/m2
01:44 47.4 °F 43.43 °F 29.91 in West 3.4 mph 5.8 mph 86% 0 in 0.00 W/m2
01:49 47.2 °F 43.23 °F 29.91 in West 2.3 mph 5.8 mph 86% 0 in 0.00 W/m2
01:54 46.9 °F 42.94 °F 29.91 in West 5.8 mph 5.8 mph 86% 0 in 0.00 W/m2
01:59 46.8 °F 42.84 °F 29.91 in West 4.6 mph 5.8 mph 86% 0 in 0.00 W/m2
02:04 46.6 °F 42.64 °F 29.91 in West 5.8 mph 8.1 mph 86% 0 in 0.00 W/m2
02:09 46.6 °F 42.64 °F 29.91 in West 3.4 mph 5.8 mph 86% 0 in 0.00 W/m2
02:14 46.5 °F 42.55 °F 29.91 in West 3.4 mph 6.9 mph 86% 0 in 0.00 W/m2
02:19 46.3 °F 42.05 °F 29.90 in West 2.3 mph 5.8 mph 85% 0 in 0.00 W/m2
02:24 46.1 °F 41.85 °F 29.90 in West 3.4 mph 6.9 mph 85% 0 in 0.00 W/m2
02:29 45.8 °F 41.86 °F 29.90 in West 3.4 mph 4.6 mph 86% 0 in 0.00 W/m2
02:34 45.7 °F 41.46 °F 29.90 in West 3.4 mph 4.6 mph 85% 0 in 0.00 W/m2
02:39 45.6 °F 41.36 °F 29.91 in West 3.4 mph 4.6 mph 85% 0 in 0.00 W/m2
02:44 45.3 °F 41.06 °F 29.90 in West 3.4 mph 3.4 mph 85% 0 in 0.00 W/m2
02:49 45.1 °F 40.87 °F 29.90 in West 3.4 mph 4.6 mph 85% 0 in 0.00 W/m2
02:54 45.1 °F 40.87 °F 29.90 in WSW 4.6 mph 5.8 mph 85% 0 in 0.00 W/m2
02:59 44.9 °F 40.67 °F 29.90 in WSW 3.4 mph 5.8 mph 85% 0 in 0.00 W/m2
03:04 44.8 °F 40.57 °F 29.90 in WSW 4.6 mph 4.6 mph 85% 0 in 0.00 W/m2
03:09 44.8 °F 40.57 °F 29.90 in West 5.8 mph 5.8 mph 85% 0 in 0.00 W/m2
03:14 44.7 °F 40.17 °F 29.90 in West 4.6 mph 5.8 mph 84% 0 in 0.00 W/m2
03:19 44.6 °F 40.07 °F 29.90 in West 2.3 mph 5.8 mph 84% 0 in 0.00 W/m2
03:24 44.4 °F 39.88 °F 29.90 in West 3.4 mph 6.9 mph 84% 0 in 0.00 W/m2
03:29 44.2 °F 39.68 °F 29.90 in West 2.3 mph 5.8 mph 84% 0 in 0.00 W/m2
03:34 44.2 °F 39.37 °F 29.90 in West 2.3 mph 4.6 mph 83% 0 in 0.00 W/m2
03:39 43.9 °F 39.08 °F 29.90 in West 1.1 mph 3.4 mph 83% 0 in 0.00 W/m2
03:44 43.6 °F 39.09 °F 29.90 in West 4.6 mph 5.8 mph 84% 0 in 0.00 W/m2
03:49 43.5 °F 38.69 °F 29.90 in West 2.3 mph 5.8 mph 83% 0 in 0.00 W/m2
03:54 43.5 °F 38.69 °F 29.90 in West 3.4 mph 5.8 mph 83% 0 in 0.00 W/m2
03:59 43.3 °F 38.49 °F 29.90 in West 3.4 mph 4.6 mph 83% 0 in 0.00 W/m2
04:04 43.1 °F 38.3 °F 29.90 in West 2.3 mph 6.9 mph 83% 0 in 0.00 W/m2
04:09 43 °F 38.2 °F 29.90 in West 4.6 mph 8.1 mph 83% 0 in 0.00 W/m2
04:14 43.2 °F 38.09 °F 29.90 in West 4.6 mph 6.9 mph 82% 0 in 0.00 W/m2
04:19 43.2 °F 38.09 °F 29.90 in West 4.6 mph 8.1 mph 82% 0 in 0.00 W/m2
04:24 43.1 °F 37.68 °F 29.90 in West 3.4 mph 9.2 mph 81% 0 in 0.00 W/m2
04:29 43.1 °F 37.68 °F 29.90 in WSW 4.6 mph 8.1 mph 81% 0 in 0.00 W/m2
04:34 43.1 °F 37.68 °F 29.90 in WNW 4.6 mph 9.2 mph 81% 0 in 0.00 W/m2
04:39 42.9 °F 37.48 °F 29.90 in West 6.9 mph 8.1 mph 81% 0 in 0.00 W/m2
04:44 43 °F 37.58 °F 29.90 in West 4.6 mph 6.9 mph 81% 0 in 0.00 W/m2
04:49 42.9 °F 37.48 °F 29.91 in West 4.6 mph 8.1 mph 81% 0 in 0.00 W/m2
04:54 42.7 °F 37.29 °F 29.90 in West 6.9 mph 8.1 mph 81% 0 in 0.00 W/m2
04:59 42.6 °F 37.5 °F 29.90 in WSW 4.6 mph 8.1 mph 82% 0 in 0.00 W/m2
05:04 42.4 °F 36.99 °F 29.90 in West 4.6 mph 8.1 mph 81% 0 in 0.00 W/m2
05:09 42.2 °F 37.11 °F 29.90 in SW 3.4 mph 5.8 mph 82% 0 in 0.00 W/m2
05:14 41.9 °F 36.82 °F 29.91 in West 2.3 mph 5.8 mph 82% 0 in 0.00 W/m2
05:19 41.8 °F 36.72 °F 29.91 in WSW 4.6 mph 9.2 mph 82% 0.01 in 0.00 W/m2
05:24 41.9 °F 36.51 °F 29.91 in West 6.9 mph 6.9 mph 81% 0.01 in 0.00 W/m2
05:29 41.8 °F 36.72 °F 29.91 in WSW 5.8 mph 6.9 mph 82% 0.01 in 0.00 W/m2
05:34 41.6 °F 36.52 °F 29.91 in West 5.8 mph 5.8 mph 82% 0.01 in 0.00 W/m2
05:39 41.5 °F 36.11 °F 29.91 in WSW 3.4 mph 5.8 mph 81% 0.01 in 0.00 W/m2
05:44 41.4 °F 36.02 °F 29.90 in West 5.8 mph 5.8 mph 81% 0.01 in 0.00 W/m2
05:49 41.3 °F 36.23 °F 29.90 in WSW 4.6 mph 6.9 mph 82% 0.01 in 0.00 W/m2
05:54 41 °F 35.94 °F 29.90 in WSW 3.4 mph 6.9 mph 82% 0.01 in 0.00 W/m2
05:59 41.3 °F 36.23 °F 29.90 in West 4.6 mph 6.9 mph 82% 0.01 in 0.00 W/m2
06:04 41.2 °F 36.13 °F 29.90 in WSW 5.8 mph 8.1 mph 82% 0.01 in 0.00 W/m2
06:09 41.1 °F 36.03 °F 29.90 in WSW 4.6 mph 9.2 mph 82% 0.01 in 0.00 W/m2
06:14 41.3 °F 36.23 °F 29.90 in WSW 2.3 mph 9.2 mph 82% 0.01 in 0.00 W/m2
06:19 41.5 °F 36.11 °F 29.90 in West 5.8 mph 9.2 mph 81% 0 in 0.00 W/m2
06:24 41.4 °F 36.02 °F 29.91 in West 4.6 mph 9.2 mph 81% 0 in 0.00 W/m2
06:29 41.6 °F 36.21 °F 29.90 in West 5.8 mph 10.3 mph 81% 0 in 0.00 W/m2
06:34 41.5 °F 36.11 °F 29.90 in WNW 6.9 mph 12.6 mph 81% 0 in 0.00 W/m2
06:39 41.6 °F 35.9 °F 29.91 in West 10.3 mph 11.5 mph 80% 0 in 0.00 W/m2
06:44 41.6 °F 36.21 °F 29.91 in WSW 5.8 mph 10.3 mph 81% 0 in 0.00 W/m2
06:49 41.6 °F 36.21 °F 29.91 in West 6.9 mph 10.3 mph 81% 0 in 0.00 W/m2
06:54 41.8 °F 36.09 °F 29.90 in West 5.8 mph 10.3 mph 80% 0 in 0.00 W/m2
06:59 41.8 °F 36.09 °F 29.90 in WSW 12.6 mph 12.6 mph 80% 0 in 0.00 W/m2
07:04 41.8 °F 36.41 °F 29.90 in WNW 6.9 mph 9.2 mph 81% 0 in 0.00 W/m2
07:09 41.7 °F 36.31 °F 29.91 in WSW 5.8 mph 10.3 mph 81% 0 in 0.00 W/m2
07:14 41.8 °F 36.41 °F 29.91 in West 6.9 mph 11.5 mph 81% 0 in 5.00 W/m2
07:19 41.8 °F 36.41 °F 29.91 in West 8.1 mph 13.8 mph 81% 0 in 7.00 W/m2
07:24 42 °F 36.29 °F 29.91 in West 9.2 mph 9.2 mph 80% 0 in 11.00 W/m2
07:29 42 °F 35.97 °F 29.91 in WSW 5.8 mph 9.2 mph 79% 0 in 12.00 W/m2
07:34 41.9 °F 36.19 °F 29.91 in WSW 5.8 mph 12.6 mph 80% 0 in 14.00 W/m2
07:39 41.8 °F 36.09 °F 29.91 in West 5.8 mph 10.3 mph 80% 0 in 16.00 W/m2
07:44 41.9 °F 35.87 °F 29.91 in WSW 6.9 mph 11.5 mph 79% 0 in 19.00 W/m2
07:49 42.1 °F 36.07 °F 29.91 in WSW 6.9 mph 12.6 mph 79% 0 in 21.00 W/m2
07:54 42.2 °F 36.17 °F 29.90 in SW 5.8 mph 11.5 mph 79% 0 in 21.00 W/m2
07:59 42.4 °F 36.36 °F 29.91 in West 9.2 mph 10.3 mph 79% 0 in 23.00 W/m2
08:04 42.8 °F 36.75 °F 29.91 in West 9.2 mph 12.6 mph 79% 0 in 25.00 W/m2
08:09 43 °F 36.94 °F 29.91 in West 4.6 mph 12.6 mph 79% 0 in 26.00 W/m2
08:14 43.2 °F 36.82 °F 29.91 in WSW 5.8 mph 16.1 mph 78% 0 in 28.00 W/m2
08:19 43.6 °F 37.2 °F 29.91 in SW 10.3 mph 11.5 mph 78% 0 in 32.00 W/m2
08:24 43.9 °F 37.5 °F 29.90 in West 8.1 mph 16.1 mph 78% 0 in 37.00 W/m2
08:29 44.2 °F 37.79 °F 29.91 in WSW 12.6 mph 16.1 mph 78% 0 in 39.00 W/m2
08:34 44.3 °F 37.88 °F 29.90 in WSW 8.1 mph 14.9 mph 78% 0 in 35.00 W/m2
08:39 44.6 °F 37.85 °F 29.90 in West 9.2 mph 17.2 mph 77% 0 in 39.00 W/m2
08:44 44.9 °F 38.14 °F 29.90 in WSW 10.3 mph 13.8 mph 77% 0 in 39.00 W/m2
08:49 45.2 °F 38.43 °F 29.90 in West 12.6 mph 13.8 mph 77% 0 in 44.00 W/m2
08:54 45.4 °F 38.29 °F 29.90 in WSW 8.1 mph 14.9 mph 76% 0 in 39.00 W/m2
08:59 45.8 °F 38.68 °F 29.90 in West 12.6 mph 20.7 mph 76% 0 in 218.00 W/m2
09:04 46 °F 38.53 °F 29.90 in SW 16.1 mph 19.5 mph 75% 0 in 251.00 W/m2
09:09 46.2 °F 38.73 °F 29.90 in WSW 6.9 mph 18.4 mph 75% 0 in 327.00 W/m2
09:14 46.5 °F 39.02 °F 29.90 in SW 13.8 mph 17.2 mph 75% 0 in 338.00 W/m2
09:19 46.8 °F 38.96 °F 29.90 in West 9.2 mph 20.7 mph 74% 0 in 350.00 W/m2
09:24 47.3 °F 39.45 °F 29.90 in SW 6.9 mph 17.2 mph 74% 0 in 360.00 W/m2
09:29 47.8 °F 38.87 °F 29.90 in SSW 9.2 mph 17.2 mph 71% 0 in 325.00 W/m2
09:34 48.1 °F 39.16 °F 29.90 in West 13.8 mph 21.9 mph 71% 0 in 113.00 W/m2
09:39 48.4 °F 39.08 °F 29.89 in West 9.2 mph 20.7 mph 70% 0 in 44.00 W/m2
09:44 48.8 °F 39.1 °F 29.89 in WSW 8.1 mph 13.8 mph 69% 0 in 151.00 W/m2
09:49 49.2 °F 39.48 °F 29.89 in SW 10.3 mph 18.4 mph 69% 0 in 288.00 W/m2
09:54 49.6 °F 39.49 °F 29.89 in West 10.3 mph 14.9 mph 68% 0 in 76.00 W/m2
09:59 50.1 °F 39.2 °F 29.89 in West 26.4 mph 26.4 mph 66% 0 in 56.00 W/m2
10:04 50.6 °F 39.28 °F 29.89 in West 10.3 mph 23 mph 65% 0 in 46.00 W/m2
10:09 50.4 °F 37.89 °F 29.89 in West 13.8 mph 27.6 mph 62% 0 in 54.00 W/m2
10:14 50.4 °F 37.89 °F 29.89 in West 9.2 mph 24.1 mph 62% 0 in 44.00 W/m2
10:19 50.4 °F 38.7 °F 29.88 in WNW 13.8 mph 24.1 mph 64% 0 in 44.00 W/m2
10:24 50.7 °F 38.58 °F 29.88 in WSW 11.5 mph 20.7 mph 63% 0 in 100.00 W/m2
10:29 50.7 °F 37.76 °F 29.88 in WNW 19.5 mph 26.4 mph 61% 0 in 44.00 W/m2
10:34 50.6 °F 37.66 °F 29.88 in West 18.4 mph 29.9 mph 61% 0 in 44.00 W/m2
10:39 50.7 °F 37.34 °F 29.88 in WNW 16.1 mph 23 mph 60% 0 in 46.00 W/m2
10:44 51 °F 37.19 °F 29.88 in NW 16.1 mph 25.3 mph 59% 0 in 214.00 W/m2
10:49 51.3 °F 37.9 °F 29.87 in NW 16.1 mph 18.4 mph 60% 0 in 74.00 W/m2
10:54 51.9 °F 38.04 °F 29.87 in SW 8.1 mph 24.1 mph 59% 0 in 42.00 W/m2
10:59 51.9 °F 35.32 °F 29.87 in WNW 8.1 mph 28.8 mph 53% 0 in 44.00 W/m2
11:04 52.2 °F 36.07 °F 29.87 in West 17.2 mph 27.6 mph 54% 0 in 44.00 W/m2
11:09 52.4 °F 36.26 °F 29.87 in WNW 21.9 mph 25.3 mph 54% 0 in 46.00 W/m2
11:14 52.3 °F 35.21 °F 29.87 in SW 9.2 mph 25.3 mph 52% 0 in 54.00 W/m2
11:19 52.6 °F 35.97 °F 29.88 in West 12.6 mph 33.3 mph 53% 0 in 65.00 W/m2
11:24 52.4 °F 35.31 °F 29.88 in NW 18.4 mph 32.2 mph 52% 0 in 107.00 W/m2
11:29 53 °F 36.82 °F 29.88 in West 27.6 mph 40.2 mph 54% 0 in 193.00 W/m2
11:34 52.9 °F 35.77 °F 29.88 in WNW 17.2 mph 31 mph 52% 0 in 197.00 W/m2
11:39 51.4 °F 33.9 °F 29.89 in West 20.7 mph 33.3 mph 51% 0 in 116.00 W/m2
11:44 51.8 °F 34.75 °F 29.89 in West 36.8 mph 36.8 mph 52% 0 in 216.00 W/m2
11:49 50.9 °F 33.92 °F 29.89 in WNW 25.3 mph 34.5 mph 52% 0 in 192.00 W/m2
11:54 52.5 °F 34.42 °F 29.90 in West 13.8 mph 31 mph 50% 0 in 759.00 W/m2
11:59 52 °F 33.95 °F 29.89 in WNW 19.5 mph 32.2 mph 50% 0 in 369.00 W/m2
12:04 50.6 °F 31.65 °F 29.89 in WNW 16.1 mph 32.2 mph 48% 0 in 121.00 W/m2
12:09 49.9 °F 32.51 °F 29.89 in West 17.2 mph 28.8 mph 51% 0 in 114.00 W/m2
12:14 50.5 °F 33.55 °F 29.89 in West 20.7 mph 32.2 mph 52% 0 in 250.00 W/m2
12:19 50.7 °F 33.73 °F 29.89 in WNW 17.2 mph 24.1 mph 52% 0 in 151.00 W/m2
12:24 50.7 °F 32.25 °F 29.89 in WSW 25.3 mph 35.6 mph 49% 0 in 171.00 W/m2
12:29 50.7 °F 30.69 °F 29.90 in West 23 mph 34.5 mph 46% 0 in 705.00 W/m2
12:34 51.5 °F 31.42 °F 29.89 in WNW 21.9 mph 32.2 mph 46% 0 in 800.00 W/m2
12:39 52.4 °F 31.14 °F 29.89 in WNW 19.5 mph 33.3 mph 44% 0 in 717.00 W/m2
12:44 53.1 °F 31.78 °F 29.89 in NW 12.6 mph 25.3 mph 44% 0 in 287.00 W/m2
12:49 51.6 °F 30.97 °F 29.89 in West 18.4 mph 29.9 mph 45% 0 in 330.00 W/m2
12:54 52.3 °F 32.69 °F 29.89 in West 14.9 mph 27.6 mph 47% 0 in 229.00 W/m2
12:59 50.9 °F 30.33 °F 29.90 in NW 13.8 mph 38 mph 45% 0 in 141.00 W/m2
13:04 50.5 °F 30.51 °F 29.89 in WNW 17.2 mph 33.3 mph 46% 0 in 374.00 W/m2
13:09 52 °F 27.2 °F 29.89 in West 18.4 mph 33.3 mph 38% 0 in 747.00 W/m2
13:14 52 °F 23.07 °F 29.89 in WNW 21.9 mph 40.2 mph 32% 0 in 677.00 W/m2
13:19 52.4 °F 26.91 °F 29.89 in WNW 20.7 mph 39.1 mph 37% 0 in 733.00 W/m2
13:24 52.2 °F 26.07 °F 29.89 in WNW 20.7 mph 38 mph 36% 0 in 717.00 W/m2
13:29 52.7 °F 25.14 °F 29.90 in WNW 19.5 mph 32.2 mph 34% 0 in 752.00 W/m2
13:34 53.2 °F 24.86 °F 29.90 in NW 17.2 mph 32.2 mph 33% 0 in 724.00 W/m2
13:39 52.9 °F 23.86 °F 29.90 in West 25.3 mph 38 mph 32% 0 in 796.00 W/m2
13:44 52.3 °F 31.05 °F 29.91 in NNW 14.9 mph 33.3 mph 44% 0 in 204.00 W/m2
13:49 48.9 °F 33 °F 29.92 in NW 24.1 mph 24.1 mph 54% 0 in 253.00 W/m2
13:54 47.6 °F 31.79 °F 29.93 in NW 27.6 mph 28.8 mph 54% 0 in 239.00 W/m2
13:59 47.1 °F 33.1 °F 29.93 in North 12.6 mph 23 mph 58% 0 in 244.00 W/m2
14:04 48.7 °F 33.27 °F 29.94 in North 11.5 mph 26.4 mph 55% 0 in 759.00 W/m2
14:09 47.8 °F 32.43 °F 29.95 in NW 16.1 mph 31 mph 55% 0 in 160.00 W/m2
14:14 46.8 °F 32.39 °F 29.95 in NW 26.4 mph 26.4 mph 57% 0 in 239.00 W/m2
14:19 45.5 °F 32.02 °F 29.97 in NW 20.7 mph 33.3 mph 59% 0 in 86.00 W/m2
14:24 39.7 °F 31.08 °F 29.99 in NW 21.9 mph 38 mph 71% 0 in 135.00 W/m2
14:29 37.2 °F 30.98 °F 30.01 in NW 28.8 mph 34.5 mph 78% 0 in 44.00 W/m2
14:34 34.3 °F 29.39 °F 30.02 in NNW 21.9 mph 39.1 mph 82% 0 in 42.00 W/m2
14:44 34.5 °F 30.17 °F 30.02 in WNW 20.7 mph 31 mph 84% 0 in 171.00 W/m2
14:49 35.4 °F 30.16 °F 30.02 in NW 16.1 mph 27.6 mph 81% 0 in 155.00 W/m2
14:54 35.9 °F 30.03 °F 30.03 in NW 18.4 mph 26.4 mph 79% 0.01 in 169.00 W/m2
14:59 36.4 °F 29.89 °F 30.03 in WNW 12.6 mph 28.8 mph 77% 0.01 in 213.00 W/m2
15:04 36.8 °F 29.96 °F 30.02 in NNW 18.4 mph 25.3 mph 76% 0.01 in 185.00 W/m2
15:09 37 °F 29.16 °F 30.03 in WNW 11.5 mph 27.6 mph 73% 0.01 in 172.00 W/m2
15:14 37.2 °F 29.02 °F 30.04 in WNW 17.2 mph 31 mph 72% 0.01 in 185.00 W/m2
15:19 37.4 °F 29.21 °F 30.04 in WNW 12.6 mph 25.3 mph 72% 0.01 in 153.00 W/m2
15:24 37.5 °F 28.97 °F 30.05 in NW 12.6 mph 21.9 mph 71% 0.01 in 132.00 W/m2
15:29 37.8 °F 28.91 °F 30.05 in NNW 14.9 mph 21.9 mph 70% 0.01 in 171.00 W/m2
15:34 38.1 °F 28.84 °F 30.06 in NW 11.5 mph 21.9 mph 69% 0.01 in 186.00 W/m2
15:39 38.6 °F 29.68 °F 30.07 in NW 29.9 mph 29.9 mph 70% 0.01 in 79.00 W/m2
15:44 37.7 °F 28.11 °F 30.08 in NW 17.2 mph 38 mph 68% 0.01 in 98.00 W/m2
15:49 37.4 °F 27.82 °F 30.08 in NW 19.5 mph 27.6 mph 68% 0.01 in 62.00 W/m2
15:54 37.1 °F 26.81 °F 30.07 in NW 10.3 mph 33.3 mph 66% 0.01 in 83.00 W/m2
15:59 37.3 °F 27.36 °F 30.08 in NW 13.8 mph 26.4 mph 67% 0 in 90.00 W/m2
16:04 37.4 °F 27.09 °F 30.08 in WNW 23 mph 27.6 mph 66% 0 in 105.00 W/m2
16:09 38 °F 27.67 °F 30.08 in NNW 14.9 mph 27.6 mph 66% 0 in 65.00 W/m2
16:14 38.1 °F 27.02 °F 30.09 in NNW 11.5 mph 26.4 mph 64% 0 in 32.00 W/m2
16:19 38.3 °F 27.21 °F 30.09 in WNW 9.2 mph 27.6 mph 64% 0 in 32.00 W/m2
16:24 38.5 °F 27.01 °F 30.09 in WNW 12.6 mph 25.3 mph 63% 0 in 32.00 W/m2
16:29 39 °F 27.49 °F 30.09 in WNW 14.9 mph 24.1 mph 63% 0 in 33.00 W/m2
16:34 39.4 °F 27.48 °F 30.10 in NW 24.1 mph 27.6 mph 62% 0 in 54.00 W/m2
16:39 39.7 °F 26.15 °F 30.11 in NW 12.6 mph 31 mph 58% 0 in 67.00 W/m2
16:44 39.3 °F 26.19 °F 30.11 in NW 13.8 mph 27.6 mph 59% 0 in 53.00 W/m2
16:49 39.1 °F 25.59 °F 30.12 in NW 16.1 mph 29.9 mph 58% 0 in 98.00 W/m2
16:54 39.2 °F 24.84 °F 30.12 in NW 13.8 mph 28.8 mph 56% 0 in 67.00 W/m2
16:59 39.1 °F 25.59 °F 30.13 in NW 19.5 mph 23 mph 58% 0 in 65.00 W/m2
17:04 39.1 °F 26.4 °F 30.13 in WNW 16.1 mph 34.5 mph 60% 0 in 137.00 W/m2
17:09 39.2 °F 26.9 °F 30.14 in WNW 12.6 mph 24.1 mph 61% 0 in 63.00 W/m2
17:14 39.2 °F 27.29 °F 30.14 in WNW 24.1 mph 26.4 mph 62% 0 in 62.00 W/m2
17:19 39.2 °F 27.29 °F 30.15 in NNW 13.8 mph 27.6 mph 62% 0 in 62.00 W/m2
17:24 38.9 °F 26.61 °F 30.16 in NW 17.2 mph 28.8 mph 61% 0 in 40.00 W/m2
17:29 38.7 °F 26.42 °F 30.16 in NNW 17.2 mph 20.7 mph 61% 0 in 37.00 W/m2
17:34 38.4 °F 26.53 °F 30.16 in NNW 20.7 mph 23 mph 62% 0 in 25.00 W/m2
17:39 38 °F 25.76 °F 30.17 in NW 25.3 mph 25.3 mph 61% 0 in 12.00 W/m2
17:44 37.8 °F 25.57 °F 30.17 in NW 23 mph 23 mph 61% 0 in 11.00 W/m2
17:49 37.6 °F 25.77 °F 30.17 in NW 14.9 mph 19.5 mph 62% 0 in 9.00 W/m2
17:54 37.5 °F 25.68 °F 30.17 in NW 8.1 mph 20.7 mph 62% 0 in 7.00 W/m2
17:59 37.4 °F 25.59 °F 30.18 in NW 8.1 mph 18.4 mph 62% 0 in 5.00 W/m2
18:04 37.2 °F 25.78 °F 30.18 in NNW 12.6 mph 20.7 mph 63% 0 in 0.00 W/m2
18:09 37.1 °F 25.69 °F 30.19 in NW 9.2 mph 19.5 mph 63% 0 in 0.00 W/m2
18:14 37.1 °F 25.69 °F 30.19 in WNW 9.2 mph 16.1 mph 63% 0 in 0.00 W/m2
18:19 37 °F 25.59 °F 30.19 in NNW 13.8 mph 14.9 mph 63% 0 in 0.00 W/m2
18:24 36.9 °F 25.5 °F 30.20 in NW 9.2 mph 19.5 mph 63% 0 in 0.00 W/m2
18:29 36.8 °F 25.4 °F 30.20 in WNW 5.8 mph 11.5 mph 63% 0 in 0.00 W/m2
18:34 36.7 °F 25.31 °F 30.20 in NW 6.9 mph 11.5 mph 63% 0 in 0.00 W/m2
18:39 36.6 °F 25.59 °F 30.21 in NW 6.9 mph 12.6 mph 64% 0 in 0.00 W/m2
18:44 36.5 °F 25.12 °F 30.21 in NW 6.9 mph 10.3 mph 63% 0 in 0.00 W/m2
18:49 36.4 °F 24.64 °F 30.22 in WNW 9.2 mph 13.8 mph 62% 0 in 0.00 W/m2
18:54 36.4 °F 24.25 °F 30.22 in NW 6.9 mph 13.8 mph 61% 0 in 0.00 W/m2
18:59 36.4 °F 23.85 °F 30.23 in WNW 9.2 mph 13.8 mph 60% 0 in 0.00 W/m2
19:04 36.5 °F 23.55 °F 30.23 in NW 10.3 mph 14.9 mph 59% 0 in 0.00 W/m2
19:09 36.7 °F 22.5 °F 30.23 in NW 18.4 mph 18.4 mph 56% 0 in 0.00 W/m2
19:14 36.7 °F 22.5 °F 30.24 in NW 10.3 mph 20.7 mph 56% 0 in 0.00 W/m2
19:19 36.7 °F 22.07 °F 30.24 in NW 9.2 mph 16.1 mph 55% 0 in 0.00 W/m2
19:24 36.7 °F 22.07 °F 30.24 in NW 12.6 mph 16.1 mph 55% 0 in 0.00 W/m2
19:29 36.6 °F 21.98 °F 30.25 in WNW 12.6 mph 18.4 mph 55% 0 in 0.00 W/m2
19:34 36.5 °F 21.88 °F 30.25 in NNW 5.8 mph 19.5 mph 55% 0 in 0.00 W/m2
19:39 36.5 °F 21.01 °F 30.25 in NNW 9.2 mph 12.6 mph 53% 0 in 0.00 W/m2
19:44 36.3 °F 21.7 °F 30.26 in NW 9.2 mph 17.2 mph 55% 0 in 0.00 W/m2
19:49 36.3 °F 21.26 °F 30.26 in NW 8.1 mph 16.1 mph 54% 0 in 0.00 W/m2
19:54 36.2 °F 21.6 °F 30.27 in WNW 13.8 mph 16.1 mph 55% 0 in 0.00 W/m2
19:59 36 °F 21.42 °F 30.27 in North 3.4 mph 14.9 mph 55% 0 in 0.00 W/m2
20:04 36 °F 21.42 °F 30.27 in NW 5.8 mph 13.8 mph 55% 0 in 0.00 W/m2
20:09 35.8 °F 21.23 °F 30.28 in NW 6.9 mph 12.6 mph 55% 0 in 0.00 W/m2
20:14 35.6 °F 21.47 °F 30.28 in NNW 6.9 mph 10.3 mph 56% 0 in 0.00 W/m2
20:19 35.4 °F 21.7 °F 30.28 in NW 2.3 mph 8.1 mph 57% 0 in 0.00 W/m2
20:24 35.2 °F 21.51 °F 30.29 in NW 5.8 mph 8.1 mph 57% 0 in 0.00 W/m2
20:29 34.7 °F 21.85 °F 30.29 in NW 3.4 mph 8.1 mph 59% 0 in 0.00 W/m2
20:34 34.5 °F 22.06 °F 30.29 in NW 2.3 mph 5.8 mph 60% 0 in 0.00 W/m2
20:39 34.2 °F 21.78 °F 30.29 in NW 4.6 mph 6.9 mph 60% 0 in 0.00 W/m2
20:44 34 °F 21.59 °F 30.30 in NNW 4.6 mph 8.1 mph 60% 0 in 0.00 W/m2
20:49 33.7 °F 22.08 °F 30.30 in NW 4.6 mph 5.8 mph 62% 0 in 0.00 W/m2
20:54 33.6 °F 21.99 °F 30.30 in NW 2.3 mph 5.8 mph 62% 0 in 0.00 W/m2
20:59 33.5 °F 21.51 °F 30.30 in NW 4.6 mph 5.8 mph 61% 0 in 0.00 W/m2
21:04 33.2 °F 21.61 °F 30.31 in NW 5.8 mph 6.9 mph 62% 0 in 0.00 W/m2
21:09 33.1 °F 22.26 °F 30.31 in NW 3.4 mph 6.9 mph 64% 0 in 0.00 W/m2
21:14 32.7 °F 21.88 °F 30.31 in NW 3.4 mph 8.1 mph 64% 0 in 0.00 W/m2
21:19 32.7 °F 21.88 °F 30.31 in NW 8.1 mph 8.1 mph 64% 0 in 0.00 W/m2
21:24 32.7 °F 21.51 °F 30.32 in NW 3.4 mph 6.9 mph 63% 0 in 0.00 W/m2
21:29 32.6 °F 21.79 °F 30.32 in NW 6.9 mph 8.1 mph 64% 0 in 0.00 W/m2
21:34 32.4 °F 21.6 °F 30.32 in NW 3.4 mph 5.8 mph 64% 0 in 0.00 W/m2
21:39 32.5 °F 21.69 °F 30.32 in NW 2.3 mph 5.8 mph 64% 0 in 0.00 W/m2
21:44 32.3 °F 21.5 °F 30.32 in NW 4.6 mph 5.8 mph 64% 0 in 0.00 W/m2
21:49 32.3 °F 21.5 °F 30.33 in NW 2.3 mph 6.9 mph 64% 0 in 0.00 W/m2
21:54 32.2 °F 21.77 °F 30.33 in NW 3.4 mph 5.8 mph 65% 0 in 0.00 W/m2
21:59 32.2 °F 21.41 °F 30.33 in NW 4.6 mph 6.9 mph 64% 0 in 0.00 W/m2
22:04 32.2 °F 21.41 °F 30.33 in NW 4.6 mph 9.2 mph 64% 0 in 0.00 W/m2
22:09 32.1 °F 21.31 °F 30.34 in WNW 4.6 mph 9.2 mph 64% 0 in 0.00 W/m2
22:14 32.1 °F 21.31 °F 30.34 in WNW 3.4 mph 8.1 mph 64% 0 in 0.00 W/m2
22:19 32 °F 21.58 °F 30.34 in WNW 6.9 mph 8.1 mph 65% 0 in 0.00 W/m2
22:24 31.8 °F 21.39 °F 30.34 in WNW 6.9 mph 9.2 mph 65% 0 in 0.00 W/m2
22:29 31.6 °F 21.2 °F 30.34 in NW 3.4 mph 8.1 mph 65% 0 in 0.00 W/m2
22:34 31.3 °F 20.92 °F 30.35 in NW 4.6 mph 6.9 mph 65% 0 in 0.00 W/m2
22:39 31.2 °F 20.82 °F 30.34 in WNW 4.6 mph 6.9 mph 65% 0 in 0.00 W/m2
22:44 31.1 °F 21.08 °F 30.35 in WNW 5.8 mph 6.9 mph 66% 0 in 0.00 W/m2
22:49 30.9 °F 20.89 °F 30.35 in NW 3.4 mph 6.9 mph 66% 0 in 0.00 W/m2
Juneau County Weather
Compliments of Weather Underground - 4 mb